[[{"header":{"parameterUnit":"m.s-1","parameterCategory":1,"la1":30.2992,"la2":30.254,"lo1":-89.0895,"lo2":-89.0443,"dy":0.0025,"dx":0.0025,"nx":19,"ny":19,"refTime":"2026-03-26T21:00:00:Z","depth":0,"parameterNumber":2,"parameterNumberName":"U-component_of_WINDS"},"data":[0,0,0,-1.0631,-1.0632,-1.0677,-1.0677,-1.074,-1.0741,0,0,0,0,0,0,0,0,0,0,0,-1.062,-1.0621,-1.0631,-1.0632,-1.0677,-1.0677,-1.074,-1.0741,0,0,0,0,0,0,0,0,0,0,0,-1.062,-1.0621,-1.0621,-1.0632,-1.0677,-1.0677,-1.074,-1.0704,0,0,0,0,0,0,0,0,0,0,-1.0659,-1.0653,-1.0621,-1.0621,-1.0632,-1.0677,-1.0677,-1.0702,-1.0706,-1.0722,0,-1.0736,0,-1.074,-1.0745,-1.0745,0,0,0,-1.0629,-1.0649,-1.0659,-1.0621,-1.0633,-1.0677,-1.0656,-1.0704,-1.0709,-1.0727,-1.0737,-1.0739,-1.0741,-1.0746,-1.0746,-1.0843,-1.0843,0,0,-1.0627,-1.063,-1.0655,-1.0662,-1.0655,-1.0655,-1.0657,-1.0707,-1.0718,-1.0737,-1.0741,-1.0742,-1.0746,-1.0747,-1.0842,-1.0843,0,0,0,-1.0621,-1.0629,-1.0637,-1.0659,-1.0667,-1.0656,-1.0659,-1.0716,-1.0718,-1.0741,-1.0742,-1.0747,-1.0747,-1.0842,-1.0842,-1.0874,0,0,0,-1.062,-1.0625,-1.0636,-1.0638,-1.0666,-1.0692,-1.0668,-1.0715,-1.0721,-1.0742,-1.0747,-1.0748,-1.0841,-1.0842,-1.0872,-1.0888,0,0,0,-1.0616,-1.0625,-1.0633,-1.0638,-1.0658,-1.0691,-1.0697,-1.0716,-1.0721,-1.0746,-1.0748,-1.0841,-1.0842,-1.087,-1.0885,-1.0915,0,0,0,-1.0614,-1.066,-1.0633,-1.0685,-1.0658,-1.071,-1.0696,-1.0735,-1.076,-1.0747,-1.0841,-1.0842,-1.0869,-1.0883,-1.0913,-1.0941,-1.0953,0,0,-1.0674,-1.0668,-1.0698,-1.0675,-1.0733,-1.0703,-1.0766,-1.0785,-1.0784,-1.0823,-1.0825,-1.0872,-1.0885,-1.0914,-1.1017,-1.1027,0,0,0,-1.0718,-1.074,-1.0755,-1.0778,-1.0793,-1.0808,-1.0817,-1.0824,-1.0856,-1.0805,-1.089,-1.0898,-1.0915,-1.0929,-1.0937,-1.0951,-1.0848,-1.0848,-1.0848,-1.081,-1.0805,-1.0855,-1.0856,-1.0878,-1.0886,-1.0904,-1.0915,-1.0904,-1.0924,-1.0937,-1.0999,-1.1015,-1.1021,-1.1036,-1.095,-1.095,-1.095,-1.0951,-1.0899,-1.0929,-1.0912,-1.0955,-1.0949,-1.0985,-1.0994,-1.0985,-1.1017,-1.099,-1.1005,-1.0978,-1.1032,-1.1045,-1.0953,-1.0952,-1.0952,-1.0952,-1.0952,-1.0959,-1.0973,-1.098,-1.1012,-1.1037,-1.1036,-1.1067,-1.106,-1.1055,-1.107,-1.1082,-1.1081,-1.108,-1.1075,-1.1076,-1.1076,-1.1076,-1.1076,-1.1076,-1.102,-1.1027,-1.1054,-1.1072,-1.1086,-1.1102,-1.1109,-1.1122,-1.1135,-1.1128,-1.1128,-1.1116,-1.1037,-1.1018,-1.108,-1.1079,-1.1079,-1.1078,-1.1078,-1.1114,-1.1091,-1.1133,-1.1146,-1.1167,-1.1192,-1.1183,-1.1209,-1.1219,-1.1234,-1.1217,-1.116,-1.1153,-1.1147,-1.1131,-1.1218,-1.1218,-1.1218,-1.1218,-1.1166,-1.1161,-1.1202,-1.1223,-1.1243,-1.1239,-1.1285,-1.129,-1.1292,-1.1297,-1.1283,-1.1262,-1.1255,-1.1252,-1.1243,-1.1229,-1.1338,-1.1338,-1.1339,-1.1224,-1.122,-1.1262,-1.1262,-1.1277,-1.129,-1.1334,-1.1359,-1.1356,-1.1343,-1.1302,-1.1296,-1.1261,-1.125,-1.1238,-1.1225,-1.1198,0,0]},{"header":{"parameterUnit":"m.s-1","parameterCategory":1,"la1":30.2992,"la2":30.254,"lo1":-89.0895,"lo2":-89.0443,"dy":0.0025,"dx":0.0025,"nx":19,"ny":19,"refTime":"2026-03-26T21:00:00:Z","depth":0,"parameterNumber":3,"parameterNumberName":"V-component_of_WINDS"},"data":[0,0,0,-9.0005,-9.0009,-9.0215,-9.0216,-9.0484,-9.0487,0,0,0,0,0,0,0,0,0,0,0,-8.995,-8.9952,-9.0004,-9.001,-9.0215,-9.0216,-9.0484,-9.0487,0,0,0,0,0,0,0,0,0,0,0,-8.9949,-8.9951,-8.9954,-9.001,-9.0215,-9.0216,-9.0483,-9.0325,0,0,0,0,0,0,0,0,0,0,-9.0124,-9.0081,-8.9951,-8.9954,-9.0012,-9.0215,-9.0216,-9.0317,-9.0335,-9.0394,0,-9.0452,0,-9.0474,-9.0505,-9.0506,0,0,0,-9.0003,-9.0066,-9.0116,-8.9954,-9.0014,-9.0215,-9.0121,-9.0327,-9.0347,-9.0418,-9.0455,-9.0465,-9.0478,-9.0507,-9.0509,-9.088,-9.0881,0,0,-8.9992,-8.9989,-9.0103,-9.013,-9.0102,-9.0114,-9.0127,-9.0339,-9.0379,-9.0456,-9.0471,-9.0483,-9.0509,-9.0511,-9.0878,-9.088,0,0,0,-8.9964,-8.9981,-9.0027,-9.0119,-9.0156,-9.012,-9.0135,-9.0369,-9.0384,-9.0474,-9.0486,-9.0511,-9.0514,-9.0875,-9.0879,-9.0978,0,0,0,-8.9956,-8.9965,-9.0022,-9.0022,-9.0152,-9.0266,-9.0161,-9.037,-9.0394,-9.0485,-9.0511,-9.0517,-9.0873,-9.0877,-9.097,-9.1024,0,0,0,-8.9934,-8.9962,-8.9995,-9.0021,-9.0111,-9.0263,-9.029,-9.0375,-9.0401,-9.0507,-9.0518,-9.0872,-9.0876,-9.0963,-9.1013,-9.1122,0,0,0,-8.9908,-9.0076,-8.9996,-9.0189,-9.0109,-9.0324,-9.0288,-9.0447,-9.0549,-9.0512,-9.0874,-9.0878,-9.0961,-9.1006,-9.1115,-9.1213,-9.1255,0,0,-9.0119,-9.0102,-9.0215,-9.015,-9.0379,-9.0292,-9.0535,-9.0628,-9.0638,-9.0797,-9.0807,-9.0973,-9.1012,-9.112,-9.1485,-9.1518,0,0,0,-9.0281,-9.0363,-9.0424,-9.0524,-9.0603,-9.0674,-9.0732,-9.0767,-9.0903,-9.0721,-9.1041,-9.1065,-9.1128,-9.1175,-9.1203,-9.1258,-9.09,-9.0899,-9.0899,-9.0573,-9.0582,-9.077,-9.0804,-9.0901,-9.0961,-9.1039,-9.1096,-9.1072,-9.1148,-9.1195,-9.1416,-9.1472,-9.1492,-9.1549,-9.1248,-9.1248,-9.1249,-9.1249,-9.0882,-9.0999,-9.0969,-9.1142,-9.1149,-9.1292,-9.1356,-9.1335,-9.1468,-9.1381,-9.1437,-9.1341,-9.1528,-9.1578,-9.1257,-9.1255,-9.1254,-9.1254,-9.1253,-9.1074,-9.1132,-9.1175,-9.1322,-9.1434,-9.1461,-9.1592,-9.1592,-9.1592,-9.1648,-9.1698,-9.1697,-9.1695,-9.1672,-9.1673,-9.1674,-9.1675,-9.1675,-9.1676,-9.1256,-9.1302,-9.1415,-9.1516,-9.1581,-9.1666,-9.173,-9.1793,-9.1862,-9.1852,-9.1852,-9.1821,-9.1546,-9.1477,-9.1688,-9.1685,-9.1684,-9.1683,-9.1682,-9.1566,-9.1498,-9.1671,-9.1737,-9.1856,-9.1967,-9.1968,-9.2096,-9.2148,-9.2212,-9.2171,-9.1967,-9.1948,-9.1926,-9.1869,-9.2169,-9.2169,-9.2169,-9.2169,-9.1728,-9.1721,-9.19,-9.2006,-9.2109,-9.2128,-9.2322,-9.2373,-9.2414,-9.2446,-9.2403,-9.2327,-9.2304,-9.2299,-9.2269,-9.2215,-9.2596,-9.2597,-9.2597,-9.192,-9.1923,-9.2089,-9.2133,-9.2227,-9.2307,-9.2489,-9.2609,-9.264,-9.2614,-9.2471,-9.2453,-9.2331,-9.2291,-9.226,-9.2213,-9.2115,0,0]}]]